| time (UTC) | temp F | wind direction | speed MPH | gust MPH | rain 1hr in | rain 24hr in | rain mn in | humidity % | barometer mb |
| 20260510072227 | 49 | 222 | 0.0 | 4.0 | 0.00 | 0.00 | 0.00 | 73 | 1023.6 |
| 20260510071226 | 49 | 222 | 0.0 | 5.0 | 0.00 | 0.00 | 0.00 | 73 | 1023.5 |
| 20260510070224 | 49 | 217 | 4.0 | 5.0 | 0.00 | 0.00 | 0.00 | 74 | 1023.4 |
| 20260510065222 | 49 | 163 | 0.0 | 5.0 | 0.00 | 0.00 | 0.00 | 74 | 1023.5 |
| 20260510064150 | 48 | 224 | 0.0 | 3.0 | 0.00 | 0.00 | 0.00 | 75 | 1023.4 |
| 20260510063149 | 48 | 223 | 0.0 | 4.0 | 0.00 | 0.00 | 0.00 | 75 | 1023.5 |
| 20260510062148 | 48 | 224 | 0.0 | 5.0 | 0.00 | 0.00 | 0.00 | 74 | 1023.3 |
| 20260510061146 | 48 | 232 | 3.0 | 5.0 | 0.00 | 0.00 | 0.00 | 74 | 1023.5 |
| 20260510060145 | 49 | 221 | 3.0 | 4.0 | 0.00 | 0.00 | 0.00 | 73 | 1023.6 |
| 20260510055144 | 50 | 157 | 1.0 | 3.0 | 0.00 | 0.00 | 0.00 | 71 | 1023.7 |
| 20260510054143 | 51 | 158 | 2.0 | 3.0 | 0.00 | 0.00 | 0.00 | 70 | 1023.8 |
| 20260510053111 | 51 | 159 | 0.0 | 2.0 | 0.00 | 0.00 | 0.00 | 69 | 1023.7 |
| 20260510052110 | 51 | 159 | 0.0 | 5.0 | 0.00 | 0.00 | 0.00 | 69 | 1024.0 |
| 20260510051109 | 52 | 159 | 2.0 | 5.0 | 0.00 | 0.00 | 0.00 | 69 | 1024.0 |
| 20260510050108 | 52 | 150 | 2.0 | 4.0 | 0.00 | 0.00 | 0.00 | 69 | 1023.9 |
| 20260510045107 | 52 | 134 | 2.0 | 3.0 | 0.00 | 0.00 | 0.00 | 68 | 1023.9 |
| 20260510044105 | 52 | 142 | 2.0 | 3.0 | 0.00 | 0.00 | 0.00 | 67 | 1024.2 |
| 20260510043104 | 53 | 142 | 2.0 | 3.0 | 0.00 | 0.00 | 0.00 | 67 | 1023.9 |
| 20260510042103 | 53 | 137 | 2.0 | 3.0 | 0.00 | 0.00 | 0.00 | 66 | 1023.9 |
| 20260510041031 | 54 | 137 | 2.0 | 4.0 | 0.00 | 0.00 | 0.00 | 65 | 1023.8 |
| 20260510035958 | 55 | 142 | 1.0 | 5.0 | 0.00 | 0.00 | 0.00 | 65 | 1023.8 |
| 20260510034957 | 55 | 149 | 2.0 | 5.0 | 0.00 | 0.00 | 0.00 | 65 | 1023.9 |
| 20260510033955 | 56 | 158 | 3.0 | 5.0 | 0.00 | 0.00 | 0.00 | 64 | 1023.9 |
| 20260510032922 | 57 | 153 | 2.0 | 5.0 | 0.00 | 0.00 | 0.00 | 63 | 1023.7 |
| 20260510031921 | 58 | 111 | 2.0 | 3.0 | 0.00 | 0.00 | 0.00 | 60 | 1023.9 |
| 20260510030746 | 60 | 88 | 0.0 | 0.0 | 0.00 | 0.00 | 0.00 | 57 | 1024.0 |
| 20260510025745 | 61 | 88 | 0.0 | 3.0 | 0.00 | 0.00 | 0.00 | 55 | 1024.1 |
| 20260510024744 | 62 | 80 | 2.0 | 3.0 | 0.00 | 0.00 | 0.00 | 51 | 1024.1 |
| 20260510023609 | 63 | 87 | 1.0 | 3.0 | 0.00 | 0.00 | 0.00 | 51 | 1023.7 |
| 20260510022537 | 63 | 83 | 1.0 | 3.0 | 0.00 | 0.00 | 0.00 | 49 | 1023.7 |
| 20260510021504 | 63 | 53 | 1.0 | 4.0 | 0.00 | 0.00 | 0.00 | 48 | 1023.7 |
| 20260510020504 | 64 | 81 | 1.0 | 4.0 | 0.00 | 0.00 | 0.00 | 48 | 1023.5 |
| 20260510015503 | 64 | 41 | 1.0 | 3.0 | 0.00 | 0.00 | 0.00 | 47 | 1023.4 |
| 20260510014501 | 64 | 86 | 2.0 | 7.0 | 0.00 | 0.00 | 0.00 | 46 | 1023.3 |
| 20260510013427 | 65 | 60 | 1.0 | 7.0 | 0.00 | 0.00 | 0.00 | 46 | 1023.4 |
| 20260510012426 | 65 | 26 | 2.0 | 4.0 | 0.00 | 0.00 | 0.00 | 46 | 1023.5 |
| 20260510011425 | 66 | 32 | 2.0 | 4.0 | 0.00 | 0.00 | 0.00 | 45 | 1023.6 |
| 20260510010423 | 66 | 11 | 2.0 | 4.0 | 0.00 | 0.00 | 0.00 | 44 | 1024.0 |
| 20260510005422 | 67 | 66 | 2.0 | 3.0 | 0.00 | 0.00 | 0.00 | 44 | 1023.8 |
| 20260510004420 | 67 | 32 | 1.0 | 3.0 | 0.00 | 0.00 | 0.00 | 43 | 1023.8 |
| 20260510003419 | 67 | 38 | 2.0 | 3.0 | 0.00 | 0.00 | 0.00 | 43 | 1023.9 |
| 20260510002418 | 68 | 67 | 1.0 | 4.0 | 0.00 | 0.00 | 0.00 | 41 | 1023.9 |
| 20260510001416 | 67 | 29 | 1.0 | 4.0 | 0.00 | 0.00 | 0.00 | 42 | 1023.8 |
| 20260510000414 | 67 | 30 | 1.0 | 4.0 | 0.00 | 0.00 | 0.00 | 43 | 1023.7 |
| 20260509235413 | 67 | 20 | 1.0 | 4.0 | 0.00 | 0.00 | 0.00 | 43 | 1023.7 |
| 20260509234310 | 67 | 17 | 1.0 | 3.0 | 0.00 | 0.00 | 0.00 | 46 | 1023.8 |
| 20260509233309 | 66 | 34 | 1.0 | 3.0 | 0.00 | 0.00 | 0.00 | 45 | 1023.8 |
| 20260509232308 | 66 | 29 | 2.0 | 3.0 | 0.00 | 0.00 | 0.00 | 43 | 1023.8 |
| 20260509231307 | 66 | 28 | 2.0 | 5.0 | 0.00 | 0.00 | 0.00 | 45 | 1024.2 |
| 20260509230306 | 66 | 25 | 2.0 | 4.0 | 0.00 | 0.00 | 0.00 | 43 | 1024.2 |
| 20260509225202 | 66 | 253 | 1.0 | 5.0 | 0.00 | 0.00 | 0.00 | 41 | 1024.2 |
| 20260509224201 | 67 | 296 | 2.0 | 6.0 | 0.00 | 0.00 | 0.00 | 40 | 1024.3 |
| 20260509223200 | 66 | 333 | 1.0 | 7.0 | 0.00 | 0.00 | 0.00 | 43 | 1024.3 |
| 20260509222159 | 67 | 15 | 1.0 | 5.0 | 0.00 | 0.00 | 0.00 | 43 | 1024.3 |
| 20260509221158 | 67 | 32 | 1.0 | 3.0 | 0.00 | 0.00 | 0.00 | 42 | 1024.6 |
| 20260509220157 | 67 | 20 | 1.0 | 3.0 | 0.00 | 0.00 | 0.00 | 41 | 1024.6 |
| 20260509215156 | 67 | 15 | 1.0 | 4.0 | 0.00 | 0.00 | 0.00 | 43 | 1024.6 |
| 20260509214155 | 67 | 5 | 2.0 | 4.0 | 0.00 | 0.00 | 0.00 | 43 | 1025.1 |
| 20260509213154 | 67 | 67 | 2.0 | 5.0 | 0.00 | 0.00 | 0.00 | 40 | 1025.1 |
| 20260509212122 | 68 | 11 | 1.0 | 8.0 | 0.00 | 0.00 | 0.00 | 39 | 1025.2 |
| 20260509211049 | 68 | 236 | 3.0 | 8.0 | 0.00 | 0.00 | 0.00 | 34 | 1025.5 |
| 20260509210017 | 67 | 157 | 2.0 | 8.0 | 0.00 | 0.00 | 0.00 | 36 | 1025.4 |
| 20260509204945 | 67 | 230 | 2.0 | 8.0 | 0.00 | 0.00 | 0.00 | 36 | 1025.5 |
| 20260509203841 | 66 | 23 | 2.0 | 6.0 | 0.00 | 0.00 | 0.00 | 36 | 1025.8 |
| 20260509202840 | 66 | 267 | 2.0 | 7.0 | 0.00 | 0.00 | 0.00 | 36 | 1025.8 |
| 20260509201839 | 66 | 250 | 1.0 | 7.0 | 0.00 | 0.00 | 0.00 | 38 | 1025.9 |
| 20260509200837 | 66 | 288 | 4.0 | 7.0 | 0.00 | 0.00 | 0.00 | 41 | 1025.9 |
| 20260509195837 | 66 | 284 | 2.0 | 9.0 | 0.00 | 0.00 | 0.00 | 42 | 1025.9 |
| 20260509194836 | 65 | 300 | 3.0 | 8.0 | 0.00 | 0.00 | 0.00 | 39 | 1026.1 |
| 20260509193835 | 66 | 305 | 3.0 | 8.0 | 0.00 | 0.00 | 0.00 | 38 | 1026.2 |
| 20260509192834 | 65 | 288 | 1.0 | 7.0 | 0.00 | 0.00 | 0.00 | 38 | 1026.1 |
| 20260509191833 | 65 | 16 | 1.0 | 7.0 | 0.00 | 0.00 | 0.00 | 40 | 1025.9 |
| 20260509190801 | 65 | 309 | 2.0 | 7.0 | 0.00 | 0.00 | 0.00 | 43 | 1026.2 |
| 20260509185800 | 65 | 327 | 1.0 | 8.0 | 0.00 | 0.00 | 0.00 | 40 | 1026.1 |
| 20260509184758 | 65 | 279 | 3.0 | 8.0 | 0.00 | 0.00 | 0.00 | 43 | 1026.1 |
| 20260509183757 | 65 | 19 | 1.0 | 8.0 | 0.00 | 0.00 | 0.00 | 40 | 1026.0 |
| 20260509182725 | 64 | 297 | 2.0 | 9.0 | 0.00 | 0.00 | 0.00 | 43 | 1025.8 |
| 20260509181653 | 64 | 285 | 3.0 | 9.0 | 0.00 | 0.00 | 0.00 | 43 | 1025.7 |
| 20260509180652 | 64 | 303 | 1.0 | 9.0 | 0.00 | 0.00 | 0.00 | 42 | 1025.6 |
| 20260509175651 | 63 | 283 | 3.0 | 7.0 | 0.00 | 0.00 | 0.00 | 47 | 1025.5 |
| 20260509174618 | 63 | 278 | 2.0 | 8.0 | 0.00 | 0.00 | 0.00 | 44 | 1025.4 |
| 20260509173617 | 62 | 14 | 2.0 | 10.0 | 0.00 | 0.00 | 0.00 | 43 | 1025.4 |
| 20260509172615 | 61 | 281 | 2.0 | 10.0 | 0.00 | 0.00 | 0.00 | 46 | 1025.4 |
| 20260509171614 | 61 | 291 | 1.0 | 9.0 | 0.00 | 0.00 | 0.00 | 47 | 1025.4 |
| 20260509170614 | 60 | 77 | 2.0 | 4.0 | 0.00 | 0.00 | 0.00 | 48 | 1025.3 |
| 20260509165613 | 59 | 275 | 2.0 | 3.0 | 0.00 | 0.00 | 0.00 | 50 | 1025.2 |
| 20260509164612 | 59 | 353 | 2.0 | 5.0 | 0.00 | 0.00 | 0.00 | 50 | 1025.3 |
| 20260509163611 | 59 | 296 | 2.0 | 6.0 | 0.00 | 0.00 | 0.00 | 52 | 1025.3 |
| 20260509162610 | 58 | 175 | 1.0 | 6.0 | 0.00 | 0.00 | 0.00 | 51 | 1025.2 |
| 20260509161608 | 57 | 303 | 2.0 | 3.0 | 0.00 | 0.00 | 0.00 | 55 | 1025.1 |
| 20260509160536 | 56 | 32 | 1.0 | 3.0 | 0.00 | 0.00 | 0.00 | 55 | 1025.1 |
| 20260509155504 | 56 | 76 | 1.0 | 3.0 | 0.00 | 0.00 | 0.00 | 54 | 1025.1 |
| 20260509154503 | 56 | 58 | 1.0 | 4.0 | 0.00 | 0.00 | 0.00 | 55 | 1025.2 |
| 20260509153501 | 56 | 27 | 1.0 | 3.0 | 0.00 | 0.00 | 0.00 | 54 | 1025.4 |
| 20260509152358 | 56 | 51 | 1.0 | 3.0 | 0.00 | 0.00 | 0.00 | 54 | 1025.5 |
| 20260509151357 | 55 | 23 | 2.0 | 3.0 | 0.00 | 0.00 | 0.00 | 54 | 1025.6 |
| 20260509150356 | 55 | 73 | 1.0 | 4.0 | 0.00 | 0.00 | 0.00 | 54 | 1025.7 |
| 20260509145355 | 54 | 57 | 1.0 | 4.0 | 0.00 | 0.00 | 0.00 | 54 | 1025.8 |
| 20260509144354 | 54 | 108 | 1.0 | 5.0 | 0.00 | 0.00 | 0.00 | 56 | 1025.8 |
| 20260509143353 | 52 | 77 | 2.0 | 6.0 | 0.00 | 0.00 | 0.00 | 57 | 1025.7 |
| 20260509142352 | 52 | 72 | 2.0 | 4.0 | 0.00 | 0.00 | 0.00 | 57 | 1025.3 |
| 20260509141351 | 51 | 66 | 1.0 | 4.0 | 0.00 | 0.00 | 0.00 | 60 | 1025.5 |
| 20260509140350 | 49 | 109 | 2.0 | 4.0 | 0.00 | 0.00 | 0.00 | 63 | 1025.1 |
| 20260509135318 | 48 | 76 | 1.0 | 5.0 | 0.00 | 0.00 | 0.00 | 64 | 1025.1 |
| 20260509134316 | 48 | 140 | 1.0 | 5.0 | 0.00 | 0.00 | 0.00 | 65 | 1025.1 |
| 20260509133316 | 48 | 104 | 1.0 | 5.0 | 0.00 | 0.00 | 0.00 | 64 | 1025.2 |
| 20260509132314 | 49 | 98 | 1.0 | 6.0 | 0.00 | 0.00 | 0.00 | 63 | 1025.3 |
| 20260509131242 | 49 | 70 | 2.0 | 8.0 | 0.00 | 0.00 | 0.00 | 60 | 1025.4 |
| 20260509130240 | 49 | 248 | 3.0 | 8.0 | 0.00 | 0.00 | 0.00 | 61 | 1025.4 |
| 20260509125239 | 49 | 244 | 3.0 | 7.0 | 0.00 | 0.00 | 0.00 | 59 | 1025.3 |
| 20260509124238 | 49 | 223 | 2.0 | 10.0 | 0.00 | 0.00 | 0.00 | 58 | 1025.2 |
| 20260509123237 | 49 | 222 | 3.0 | 10.0 | 0.00 | 0.00 | 0.00 | 58 | 1025.0 |
| 20260509122236 | 49 | 225 | 2.0 | 7.0 | 0.00 | 0.00 | 0.00 | 58 | 1024.8 |
| 20260509121235 | 49 | 229 | 2.0 | 6.0 | 0.00 | 0.00 | 0.00 | 58 | 1024.8 |
| 20260509120234 | 49 | 216 | 1.0 | 7.0 | 0.00 | 0.00 | 0.00 | 59 | 1024.8 |
| 20260509115233 | 49 | 226 | 2.0 | 7.0 | 0.00 | 0.00 | 0.00 | 58 | 1024.5 |
| 20260509114232 | 49 | 223 | 2.0 | 6.0 | 0.00 | 0.00 | 0.00 | 57 | 1024.6 |
| 20260509113231 | 49 | 220 | 2.0 | 6.0 | 0.00 | 0.00 | 0.00 | 57 | 1024.7 |
| 20260509112158 | 50 | 227 | 2.0 | 7.0 | 0.00 | 0.00 | 0.00 | 56 | 1024.8 |
| 20260509111157 | 50 | 235 | 2.0 | 7.0 | 0.00 | 0.00 | 0.00 | 55 | 1024.8 |
| 20260509110054 | 50 | 232 | 2.0 | 7.0 | 0.00 | 0.00 | 0.00 | 55 | 1024.8 |
| 20260509105052 | 51 | 243 | 2.0 | 7.0 | 0.00 | 0.00 | 0.00 | 54 | 1024.8 |
| 20260509104051 | 51 | 227 | 4.0 | 8.0 | 0.00 | 0.00 | 0.00 | 53 | 1025.0 |
| 20260509103050 | 51 | 228 | 2.0 | 8.0 | 0.00 | 0.00 | 0.00 | 53 | 1025.0 |
| 20260509102049 | 51 | 244 | 3.0 | 9.0 | 0.00 | 0.00 | 0.00 | 54 | 1025.0 |
| 20260509101049 | 50 | 231 | 3.0 | 6.0 | 0.00 | 0.00 | 0.00 | 55 | 1024.9 |
| 20260509100048 | 50 | 221 | 3.0 | 5.0 | 0.00 | 0.00 | 0.00 | 55 | 1024.5 |
| 20260509095015 | 51 | 223 | 2.0 | 6.0 | 0.00 | 0.00 | 0.00 | 54 | 1024.6 |
| 20260509094013 | 52 | 227 | 3.0 | 8.0 | 0.00 | 0.00 | 0.00 | 53 | 1024.7 |
| 20260509092940 | 52 | 226 | 2.0 | 9.0 | 0.00 | 0.00 | 0.00 | 52 | 1024.3 |
| 20260509091939 | 52 | 223 | 3.0 | 8.0 | 0.00 | 0.00 | 0.00 | 51 | 1024.2 |
| 20260509090938 | 52 | 224 | 3.0 | 8.0 | 0.00 | 0.00 | 0.00 | 51 | 1024.3 |
| 20260509085938 | 52 | 227 | 3.0 | 8.0 | 0.00 | 0.00 | 0.00 | 50 | 1024.4 |
| 20260509084937 | 53 | 220 | 2.0 | 7.0 | 0.00 | 0.00 | 0.00 | 49 | 1024.4 |
| 20260509083905 | 53 | 218 | 2.0 | 9.0 | 0.00 | 0.00 | 0.00 | 48 | 1024.5 |
| 20260509082904 | 54 | 230 | 2.0 | 11.0 | 0.00 | 0.00 | 0.00 | 47 | 1024.5 |
| 20260509081903 | 54 | 237 | 3.0 | 11.0 | 0.00 | 0.00 | 0.00 | 47 | 1024.5 |
| 20260509080901 | 54 | 224 | 2.0 | 9.0 | 0.00 | 0.00 | 0.00 | 46 | 1024.6 |
| 20260509075727 | 54 | 230 | 2.0 | 10.0 | 0.00 | 0.00 | 0.00 | 46 | 1024.2 |
| 20260509074725 | 54 | 237 | 2.0 | 9.0 | 0.00 | 0.00 | 0.00 | 45 | 1024.1 |
| 20260509073725 | 54 | 237 | 3.0 | 10.0 | 0.00 | 0.00 | 0.00 | 45 | 1024.1 |
| 20260509072652 | 53 | 233 | 2.0 | 8.0 | 0.00 | 0.00 | 0.00 | 46 | 1023.8 |